This demonstration page uses our WeatherBlox Daily Observations layout. Learn more.

Left ArrowRight Arrow

44.8408, -93.29828

Hourly Observations for June 27, 2015

Temp ( °F °C ) Dew Point ( °F °C ) Humidity (%) Winds ( mph kmh ) Pressure ( in mb ) Visibility ( mi km ) Precip ( " mm )
12:53 am 00:53 Clear 64 17.8 59 15 84 84 NW 7 11 30.07 1018 10 16 0.00 0.00
1:53 am 01:53 Clear 64 17.8 58 14.4 81 81 Calm 30.07 1018 10 16 0.00 0.00
2:53 am 02:53 Clear 63 17.2 58 14.4 84 84 W 3 6 30.06 1018 10 16 0.00 0.00
3:53 am 03:53 Clear 62 16.7 59 15 90 90 WNW 3 6 30.06 1018 10 16 0.00 0.00
4:53 am 04:53 Mostly Clear 63 17.2 59 15 87 87 Calm 30.05 1018 10 16 0.00 0.00
5:53 am 05:53 Mostly Sunny 62 16.7 59 15 90 90 NW 6 9 30.07 1018 9 14 0.00 0.00
6:53 am 06:53 Mostly Sunny 64 17.8 59 15 84 84 Calm 30.07 1018 9 14 0.00 0.00
7:53 am 07:53 Mostly Sunny 66 18.9 60 15.6 81 81 Calm 30.08 1019 9 14 0.00 0.00
8:53 am 08:53 Mostly Sunny 71 21.7 60 15.6 68 68 Calm 30.08 1019 9 14 0.00 0.00
9:53 am 09:53 Partly Cloudy 73 22.8 61 16.1 66 66 W 3 6 30.08 1019 10 16 0.00 0.00
10:53 am 10:53 Mostly Sunny 76 24.4 61 16.1 60 60 Calm 30.07 1018 10 16 0.00 0.00
11:53 am 11:53 Partly Cloudy 78 25.6 58 14.4 50 50 Calm 30.06 1018 10 16 0.00 0.00
12:53 pm 12:53 Mostly Cloudy 78 25.6 59 15 52 52 W 5 7 30.05 1018 10 16 0.00 0.00
1:53 pm 13:53 Partly Cloudy 80 26.7 58 14.4 47 47 SW 3 6 30.03 1017 10 16 0.00 0.00
2:53 pm 14:53 Partly Cloudy 80 26.7 56 13.3 44 44 SW 3 6 30.01 1016 10 16 0.00 0.00
3:53 pm 15:53 Mostly Cloudy 82 27.8 55 12.8 40 40 SW 8 13 29.98 1015 10 16 0.00 0.00
4:53 pm 16:53 Mostly Cloudy 82 27.8 55 12.8 40 40 W 13 20 29.96 1015 10 16 0.00 0.00
5:53 pm 17:53 Mostly Cloudy 81 27.2 53 11.7 38 38 SW 9 15 29.95 1014 10 16 0.00 0.00
6:53 pm 18:53 Mostly Cloudy 80 26.7 53 11.7 39 39 SW 8 13 29.92 1013 10 16 0.00 0.00
7:53 pm 19:53 Mostly Cloudy 79 26.1 55 12.8 44 44 SSW 7 11 29.91 1013 10 16 0.00 0.00
8:53 pm 20:53 Mostly Cloudy 77 25 56 13.3 48 48 S 8 13 29.88 1012 10 16 0.00 0.00
9:53 pm 21:53 Mostly Cloudy 76 24.4 56 13.3 50 50 S 7 11 29.89 1012 10 16 0.00 0.00
10:53 pm 22:53 Mostly Cloudy 75 23.9 55 12.8 50 50 S 10 17 29.86 1011 10 16 0.00 0.00
11:41 pm 23:41 Cloudy with Thunderstorms 74 23.3 56 13.3 54 54 S 7 11 29.85 1011 10 16 0.00 0.03
11:53 pm 23:53 Cloudy with Nearby Thunderstorms 74 23.3 57 13.9 56 56 VRB 7 11 29.86 1011 10 16 0.00 0.03

Powered by AerisWeather